| time (UTC) | temp C | wind direction | speed KPH | gust KPH | rain 1hr cm | rain 24hr cm | rain mn cm | humidity % | barometer mb |
| 20260505014637 | 23 | 0 | 3.2 | 14.5 | 0.00 | 0.00 | 0.00 | 77 | 995.8 |
| 20260505014137 | 23 | 0 | 3.2 | 14.5 | 0.00 | 0.00 | 0.00 | 77 | 995.7 |
| 20260505014127 | 24 | 0 | 3.2 | 8.0 | 0.00 | 0.00 | 0.00 | 77 | 995.8 |
| 20260505013355 | 24 | 0 | 3.2 | 8.0 | 0.00 | 0.00 | 0.00 | 76 | 995.7 |
| 20260505012637 | 24 | 0 | 3.2 | 8.0 | 0.00 | 0.00 | 0.00 | 76 | 995.6 |
| 20260505012137 | 24 | 0 | 3.2 | 8.0 | 0.00 | 0.00 | 0.00 | 76 | 995.6 |
| 20260505011638 | 24 | 0 | 3.2 | 9.7 | 0.00 | 0.00 | 0.00 | 76 | 995.5 |
| 20260505011137 | 24 | 0 | 3.2 | 9.7 | 0.00 | 0.00 | 0.00 | 75 | 995.5 |
| 20260505010638 | 25 | 0 | 3.2 | 12.9 | 0.00 | 0.00 | 0.00 | 75 | 995.6 |
| 20260505010133 | 25 | 0 | 3.2 | 12.9 | 0.00 | 0.00 | 0.00 | 74 | 995.7 |
| 20260505005633 | 25 | 0 | 3.2 | 8.0 | 0.00 | 0.00 | 0.00 | 74 | 995.6 |
| 20260505005133 | 25 | 0 | 4.8 | 12.9 | 0.00 | 0.00 | 0.00 | 74 | 995.6 |
| 20260505004633 | 25 | 0 | 4.8 | 16.1 | 0.00 | 0.00 | 0.00 | 74 | 995.6 |
| 20260505004134 | 25 | 0 | 4.8 | 16.1 | 0.00 | 0.00 | 0.00 | 74 | 995.6 |
| 20260505003636 | 25 | 0 | 3.2 | 12.9 | 0.00 | 0.00 | 0.00 | 73 | 995.6 |
| 20260505003133 | 25 | 0 | 3.2 | 12.9 | 0.00 | 0.00 | 0.00 | 73 | 995.5 |
| 20260505002633 | 25 | 0 | 3.2 | 12.9 | 0.00 | 0.00 | 0.00 | 73 | 995.5 |
| 20260505002134 | 25 | 0 | 3.2 | 12.9 | 0.00 | 0.00 | 0.00 | 73 | 995.6 |
| 20260505001628 | 25 | 0 | 3.2 | 12.9 | 0.00 | 0.00 | 0.00 | 73 | 995.6 |
| 20260505001353 | 25 | 0 | 4.8 | 16.1 | 0.00 | 0.00 | 0.00 | 72 | 995.6 |
| 20260505000629 | 25 | 0 | 3.2 | 16.1 | 0.00 | 0.00 | 0.00 | 72 | 995.6 |
| 20260505000128 | 26 | 0 | 4.8 | 16.1 | 0.00 | 0.00 | 0.00 | 72 | 995.6 |
| 20260504235846 | 26 | 0 | 6.4 | 16.1 | 0.00 | 0.00 | 0.00 | 71 | 995.7 |
| 20260504235129 | 26 | 0 | 4.8 | 16.1 | 0.00 | 0.00 | 0.00 | 71 | 995.7 |
| 20260504234629 | 26 | 0 | 4.8 | 16.1 | 0.00 | 0.00 | 0.00 | 71 | 995.7 |
| 20260504234127 | 26 | 0 | 4.8 | 14.5 | 0.00 | 0.00 | 0.00 | 70 | 995.8 |
| 20260504233627 | 26 | 0 | 4.8 | 12.9 | 0.00 | 0.00 | 0.00 | 70 | 995.7 |
| 20260504233121 | 26 | 0 | 4.8 | 9.7 | 0.00 | 0.00 | 0.00 | 70 | 995.7 |
| 20260504232621 | 26 | 0 | 6.4 | 22.5 | 0.00 | 0.00 | 0.00 | 69 | 995.7 |
| 20260504232123 | 26 | 0 | 6.4 | 22.5 | 0.00 | 0.00 | 0.00 | 69 | 995.7 |
| 20260504231621 | 26 | 0 | 4.8 | 16.1 | 0.00 | 0.00 | 0.00 | 68 | 995.9 |
| 20260504231121 | 26 | 0 | 4.8 | 14.5 | 0.00 | 0.00 | 0.00 | 69 | 995.9 |
| 20260504230620 | 26 | 0 | 4.8 | 14.5 | 0.00 | 0.00 | 0.00 | 68 | 996.0 |
| 20260504230120 | 26 | 0 | 4.8 | 16.1 | 0.00 | 0.00 | 0.00 | 68 | 996.1 |
| 20260504225621 | 26 | 0 | 4.8 | 16.1 | 0.00 | 0.00 | 0.00 | 68 | 996.1 |
| 20260504225121 | 26 | 0 | 4.8 | 12.9 | 0.00 | 0.00 | 0.00 | 68 | 996.2 |
| 20260504224617 | 26 | 0 | 6.4 | 16.1 | 0.00 | 0.00 | 0.00 | 67 | 996.1 |
| 20260504224336 | 26 | 0 | 6.4 | 16.1 | 0.00 | 0.00 | 0.00 | 67 | 996.1 |
| 20260504223617 | 26 | 0 | 4.8 | 14.5 | 0.00 | 0.00 | 0.00 | 67 | 996.2 |
| 20260504223115 | 27 | 0 | 4.8 | 24.1 | 0.00 | 0.00 | 0.00 | 67 | 996.3 |
| 20260504222615 | 27 | 84 | 4.8 | 24.1 | 0.00 | 0.00 | 0.00 | 66 | 996.3 |
| 20260504222115 | 26 | 84 | 4.8 | 12.9 | 0.00 | 0.00 | 0.00 | 67 | 996.3 |
| 20260504221614 | 26 | 96 | 4.8 | 12.9 | 0.00 | 0.00 | 0.00 | 66 | 996.5 |
| 20260504221116 | 26 | 90 | 4.8 | 14.5 | 0.00 | 0.00 | 0.00 | 66 | 996.5 |
| 20260504220617 | 27 | 67 | 4.8 | 14.5 | 0.00 | 0.00 | 0.00 | 66 | 996.6 |
| 20260504220337 | 27 | 0 | 3.2 | 12.9 | 0.00 | 0.00 | 0.00 | 66 | 996.6 |
| 20260504215615 | 27 | 0 | 4.8 | 16.1 | 0.00 | 0.00 | 0.00 | 66 | 996.6 |
| 20260504215110 | 27 | 70 | 4.8 | 16.1 | 0.00 | 0.00 | 0.00 | 66 | 996.6 |
| 20260504214609 | 27 | 81 | 6.4 | 14.5 | 0.00 | 0.00 | 0.00 | 65 | 996.6 |
| 20260504214108 | 27 | 105 | 6.4 | 14.5 | 0.00 | 0.00 | 0.00 | 65 | 996.7 |
| 20260504213606 | 27 | 85 | 4.8 | 14.5 | 0.00 | 0.00 | 0.00 | 65 | 997.0 |
| 20260504213107 | 27 | 92 | 3.2 | 12.9 | 0.00 | 0.00 | 0.00 | 65 | 996.9 |
| 20260504212607 | 27 | 38 | 3.2 | 9.7 | 0.00 | 0.00 | 0.00 | 65 | 996.9 |
| 20260504212323 | 27 | 85 | 3.2 | 12.9 | 0.00 | 0.00 | 0.00 | 65 | 997.0 |
| 20260504211603 | 27 | 88 | 3.2 | 12.9 | 0.00 | 0.00 | 0.00 | 64 | 997.1 |
| 20260504211103 | 27 | 67 | 3.2 | 9.7 | 0.00 | 0.00 | 0.00 | 64 | 997.1 |
| 20260504210832 | 27 | 81 | 3.2 | 12.9 | 0.00 | 0.00 | 0.00 | 65 | 997.2 |
| 20260504210101 | 27 | 67 | 4.8 | 12.9 | 0.00 | 0.00 | 0.00 | 65 | 997.3 |
| 20260504205602 | 27 | 78 | 4.8 | 16.1 | 0.00 | 0.00 | 0.00 | 65 | 997.3 |
| 20260504205101 | 27 | 0 | 3.2 | 16.1 | 0.00 | 0.00 | 0.00 | 64 | 997.3 |
| 20260504204600 | 27 | 80 | 3.2 | 8.0 | 0.00 | 0.00 | 0.00 | 64 | 997.4 |
| 20260504204059 | 27 | 66 | 3.2 | 8.0 | 0.00 | 0.00 | 0.00 | 64 | 997.6 |
| 20260504203557 | 27 | 64 | 3.2 | 9.7 | 0.00 | 0.00 | 0.00 | 65 | 997.7 |
| 20260504203055 | 27 | 0 | 3.2 | 9.7 | 0.00 | 0.00 | 0.00 | 65 | 997.7 |
| 20260504202811 | 27 | 0 | 3.2 | 19.3 | 0.00 | 0.00 | 0.00 | 64 | 997.8 |
| 20260504202052 | 27 | 65 | 3.2 | 19.3 | 0.00 | 0.00 | 0.00 | 65 | 997.9 |
| 20260504201549 | 27 | 0 | 1.6 | 8.0 | 0.00 | 0.00 | 0.00 | 66 | 998.1 |
| 20260504201539 | 27 | 0 | 3.2 | 16.1 | 0.00 | 0.00 | 0.00 | 66 | 998.2 |
| 20260504200545 | 27 | 0 | 3.2 | 16.1 | 0.00 | 0.00 | 0.00 | 64 | 998.3 |
| 20260504200302 | 27 | 0 | 3.2 | 9.7 | 0.00 | 0.00 | 0.00 | 65 | 998.4 |
| 20260504195543 | 27 | 0 | 3.2 | 9.7 | 0.00 | 0.00 | 0.00 | 65 | 998.4 |
| 20260504195042 | 27 | 0 | 3.2 | 12.9 | 0.00 | 0.00 | 0.00 | 65 | 998.5 |
| 20260504194803 | 27 | 55 | 3.2 | 12.9 | 0.00 | 0.00 | 0.00 | 65 | 998.7 |
| 20260504194038 | 27 | 0 | 3.2 | 9.7 | 0.00 | 0.00 | 0.00 | 65 | 998.7 |
| 20260504193536 | 27 | 38 | 3.2 | 9.7 | 0.00 | 0.00 | 0.00 | 65 | 998.7 |
| 20260504193136 | 27 | 0 | 3.2 | 9.7 | 0.00 | 0.00 | 0.00 | 64 | 998.8 |
| 20260504192035 | 27 | 59 | 3.2 | 12.9 | 0.00 | 0.00 | 0.00 | 65 | 998.9 |
| 20260504191754 | 27 | 0 | 3.2 | 12.9 | 0.00 | 0.00 | 0.00 | 63 | 999.0 |
| 20260504191032 | 27 | 57 | 3.2 | 12.9 | 0.00 | 0.00 | 0.00 | 65 | 998.9 |
| 20260504190533 | 26 | 0 | 4.8 | 14.5 | 0.00 | 0.00 | 0.00 | 64 | 999.2 |
| 20260504190033 | 26 | 0 | 4.8 | 14.5 | 0.00 | 0.00 | 0.00 | 63 | 999.4 |
| 20260504185755 | 26 | 0 | 4.8 | 22.5 | 0.00 | 0.00 | 0.00 | 64 | 999.4 |
| 20260504185029 | 26 | 0 | 6.4 | 22.5 | 0.00 | 0.00 | 0.00 | 64 | 999.5 |
| 20260504184528 | 26 | 0 | 4.8 | 16.1 | 0.00 | 0.00 | 0.00 | 63 | 999.4 |
| 20260504184029 | 26 | 0 | 4.8 | 14.5 | 0.00 | 0.00 | 0.00 | 65 | 999.5 |
| 20260504183529 | 26 | 0 | 4.8 | 14.5 | 0.00 | 0.00 | 0.00 | 65 | 999.6 |
| 20260504183030 | 26 | 0 | 4.8 | 9.7 | 0.00 | 0.00 | 0.00 | 66 | 999.5 |
| 20260504182525 | 26 | 63 | 6.4 | 19.3 | 0.00 | 0.00 | 0.00 | 65 | 999.6 |
| 20260504182013 | 26 | 0 | 4.8 | 19.3 | 0.00 | 0.00 | 0.00 | 64 | 999.7 |
| 20260504181513 | 26 | 0 | 4.8 | 20.9 | 0.00 | 0.00 | 0.00 | 65 | 999.7 |
| 20260504181013 | 26 | 0 | 4.8 | 20.9 | 0.00 | 0.00 | 0.00 | 65 | 999.7 |
| 20260504180512 | 26 | 0 | 4.8 | 16.1 | 0.00 | 0.00 | 0.00 | 66 | 999.8 |
| 20260504180013 | 26 | 0 | 4.8 | 16.1 | 0.00 | 0.00 | 0.00 | 65 | 999.9 |
| 20260504175513 | 26 | 63 | 3.2 | 12.9 | 0.00 | 0.00 | 0.00 | 66 | 999.8 |
| 20260504175013 | 26 | 63 | 4.8 | 12.9 | 0.00 | 0.00 | 0.00 | 66 | 1000.0 |
| 20260504174513 | 26 | 59 | 4.8 | 16.1 | 0.00 | 0.00 | 0.00 | 66 | 1000.0 |
| 20260504174013 | 25 | 63 | 3.2 | 16.1 | 0.00 | 0.00 | 0.00 | 67 | 1000.1 |
| 20260504173513 | 25 | 65 | 3.2 | 14.5 | 0.00 | 0.00 | 0.00 | 67 | 1000.1 |
| 20260504173013 | 25 | 85 | 4.8 | 17.7 | 0.00 | 0.00 | 0.00 | 66 | 1000.2 |
| 20260504172512 | 25 | 59 | 6.4 | 17.7 | 0.00 | 0.00 | 0.00 | 65 | 1000.2 |
| 20260504172013 | 25 | 55 | 6.4 | 16.1 | 0.00 | 0.00 | 0.00 | 65 | 1000.3 |
| 20260504171511 | 26 | 0 | 4.8 | 17.7 | 0.00 | 0.00 | 0.00 | 66 | 1000.5 |
| 20260504171012 | 25 | 0 | 6.4 | 17.7 | 0.00 | 0.00 | 0.00 | 66 | 1000.6 |
| 20260504170514 | 25 | 0 | 4.8 | 16.1 | 0.00 | 0.00 | 0.00 | 67 | 1000.5 |
| 20260504150959 | 22 | 0 | 3.2 | 22.5 | 0.00 | 0.00 | 0.00 | 73 | 1001.6 |
| 20260504150501 | 22 | 0 | 3.2 | 16.1 | 0.00 | 0.00 | 0.00 | 75 | 1001.5 |
| 20260504141220 | 20 | 0 | 1.6 | 6.4 | 0.00 | 0.00 | 0.00 | 80 | 1001.6 |
| 20260504140502 | 19 | 0 | 1.6 | 6.4 | 0.00 | 0.00 | 0.00 | 81 | 1001.6 |
| 20260504130714 | 15 | 0 | 0.0 | 3.2 | 0.00 | 0.00 | 0.00 | 90 | 1001.3 |
| 20260504130225 | 15 | 0 | 0.0 | 0.0 | 0.00 | 0.00 | 0.00 | 91 | 1001.4 |
| 20260504110424 | 13 | 0 | 0.0 | 0.0 | 0.00 | 0.00 | 0.00 | 89 | 1000.9 |
| 20260504100406 | 14 | 0 | 0.0 | 0.0 | 0.00 | 0.00 | 0.00 | 87 | 1001.3 |
| 20260504081841 | 15 | 0 | 0.0 | 0.0 | 0.00 | 0.00 | 0.00 | 83 | 1001.9 |
| 20260504081341 | 15 | 0 | 0.0 | 1.6 | 0.00 | 0.00 | 0.00 | 82 | 1001.9 |
| 20260504080841 | 15 | 0 | 0.0 | 1.6 | 0.00 | 0.00 | 0.00 | 82 | 1001.8 |
| 20260504080339 | 15 | 0 | 0.0 | 0.0 | 0.00 | 0.00 | 0.00 | 82 | 1001.9 |
| 20260504070338 | 16 | 0 | 0.0 | 0.0 | 0.00 | 0.00 | 0.00 | 80 | 1003.0 |
| 20260504050333 | 18 | 0 | 1.6 | 4.8 | 0.00 | 0.00 | 0.00 | 72 | 1003.7 |
| 20260504045830 | 18 | 0 | 1.6 | 4.8 | 0.00 | 0.00 | 0.00 | 71 | 1003.8 |
| 20260504045329 | 18 | 0 | 1.6 | 3.2 | 0.00 | 0.00 | 0.00 | 71 | 1003.8 |
| 20260504044827 | 18 | 0 | 0.0 | 3.2 | 0.00 | 0.00 | 0.00 | 71 | 1003.7 |
| 20260504044326 | 18 | 0 | 0.0 | 1.6 | 0.00 | 0.00 | 0.00 | 71 | 1003.8 |
| 20260504043824 | 18 | 0 | 1.6 | 3.2 | 0.00 | 0.00 | 0.00 | 70 | 1003.9 |
| 20260504043550 | 18 | 0 | 1.6 | 3.2 | 0.00 | 0.00 | 0.00 | 70 | 1004.0 |
| 20260504042820 | 18 | 0 | 0.0 | 3.2 | 0.00 | 0.00 | 0.00 | 70 | 1003.9 |
| 20260504042539 | 18 | 0 | 1.6 | 4.8 | 0.00 | 0.00 | 0.00 | 70 | 1003.9 |
| 20260504041816 | 18 | 0 | 1.6 | 4.8 | 0.00 | 0.00 | 0.00 | 69 | 1003.9 |
| 20260504041316 | 18 | 0 | 1.6 | 4.8 | 0.00 | 0.00 | 0.00 | 69 | 1003.9 |
| 20260504041307 | 18 | 0 | 1.6 | 4.8 | 0.00 | 0.00 | 0.00 | 69 | 1003.9 |
| 20260504040316 | 18 | 0 | 1.6 | 4.8 | 0.00 | 0.00 | 0.00 | 69 | 1003.9 |
| 20260504035811 | 18 | 0 | 1.6 | 6.4 | 0.00 | 0.00 | 0.00 | 68 | 1003.9 |
| 20260504035309 | 18 | 0 | 3.2 | 6.4 | 0.00 | 0.00 | 0.00 | 68 | 1004.0 |
| 20260504034810 | 18 | 0 | 1.6 | 4.8 | 0.00 | 0.00 | 0.00 | 68 | 1003.9 |
| 20260504034308 | 19 | 0 | 1.6 | 3.2 | 0.00 | 0.00 | 0.00 | 68 | 1003.8 |
| 20260504033808 | 19 | 0 | 0.0 | 1.6 | 0.00 | 0.00 | 0.00 | 68 | 1003.9 |
| 20260504033301 | 19 | 0 | 0.0 | 0.0 | 0.00 | 0.00 | 0.00 | 69 | 1003.9 |
| 20260504032757 | 19 | 0 | 0.0 | 0.0 | 0.00 | 0.00 | 0.00 | 69 | 1003.8 |
| 20260504032258 | 19 | 0 | 0.0 | 0.0 | 0.00 | 0.00 | 0.00 | 68 | 1003.9 |
| 20260504032022 | 19 | 0 | 0.0 | 3.2 | 0.00 | 0.00 | 0.00 | 67 | 1003.8 |
| 20260504031255 | 19 | 0 | 1.6 | 4.8 | 0.00 | 0.00 | 0.00 | 67 | 1003.8 |
| 20260504030755 | 19 | 0 | 1.6 | 4.8 | 0.00 | 0.00 | 0.00 | 67 | 1003.8 |
| 20260504030255 | 19 | 0 | 1.6 | 6.4 | 0.00 | 0.00 | 0.00 | 67 | 1003.7 |
| 20260504030020 | 19 | 0 | 1.6 | 6.4 | 0.00 | 0.00 | 0.00 | 68 | 1003.7 |
| 20260504025251 | 19 | 0 | 1.6 | 4.8 | 0.00 | 0.00 | 0.00 | 68 | 1003.7 |
| 20260504024749 | 19 | 0 | 1.6 | 3.2 | 0.00 | 0.00 | 0.00 | 68 | 1003.6 |
| 20260504024250 | 19 | 0 | 1.6 | 4.8 | 0.00 | 0.00 | 0.00 | 69 | 1003.6 |
| 20260504023746 | 19 | 0 | 1.6 | 4.8 | 0.00 | 0.00 | 0.00 | 69 | 1003.5 |
| 20260504023243 | 18 | 0 | 0.0 | 3.2 | 0.00 | 0.00 | 0.00 | 69 | 1003.5 |
| 20260504022744 | 19 | 0 | 0.0 | 0.0 | 0.00 | 0.00 | 0.00 | 70 | 1003.4 |
| 20260504022244 | 19 | 0 | 0.0 | 0.0 | 0.00 | 0.00 | 0.00 | 69 | 1003.5 |
| 20260504021745 | 19 | 0 | 0.0 | 0.0 | 0.00 | 0.00 | 0.00 | 68 | 1003.5 |
| 20260504021241 | 19 | 0 | 0.0 | 0.0 | 0.00 | 0.00 | 0.00 | 68 | 1003.4 |
| 20260504020739 | 20 | 0 | 0.0 | 0.0 | 0.00 | 0.00 | 0.00 | 67 | 1003.3 |
| 20260504020500 | 20 | 0 | 0.0 | 0.0 | 0.00 | 0.00 | 0.00 | 66 | 1003.2 |
| 20260504015735 | 20 | 0 | 0.0 | 0.0 | 0.00 | 0.00 | 0.00 | 65 | 1003.2 |
| 20260504015237 | 20 | 0 | 0.0 | 0.0 | 0.00 | 0.00 | 0.00 | 65 | 1003.1 |
| 20260504015220 | 20 | 0 | 0.0 | 0.0 | 0.00 | 0.00 | 0.00 | 64 | 1003.0 |